Cloud_Cover
0 0 0 0 0 0 0 0 11 0 0 22 82 13 5 48 5 5 5 30 5 5 5 5 60 74 63 30 97 100 100 100 100 100 8 7 5 5 5 2 0 0 0 0 0
4 0 0 0 0 0 0 0 21 82 0 0 64 17 5 5 12 5 6 5 5 4 12 60 45 8 17 8 15 28 95 100 100 100 72 33 5 3 4 6 6 0 0 0 0
5 1 0 0 0 0 0 0 1 26 98 0 42 44 0 2 1 5 5 1 5 6 5 5 9 18 37 84 98 51 23 5 78 100 100 96 94 11 19 6 2 0 0 0 0
5 5 50 10 0 0 0 0 32 87 100 74 38 76 3 10 0 0 2 5 4 5 5 5 5 5 12 51 71 69 55 98 100 100 100 100 100 100 94 46 0 0 0 0 0
6 5 1 0 0 0 0 0 12 65 66 100 13 95 94 4 0 0 0 0 5 34 10 0 0 1 5 28 18 5 44 5 5 7 65 100 98 30 5 0 0 0 0 0 0
5 0 2 0 0 0 0 0 1 100 96 66 2 47 88 0 0 0 0 0 0 2 14 82 1 0 4 5 58 55 5 5 1 0 0 0 1 1 2 0 0 0 0 0 0
0 0 0 0 0 0 0 0 0 100 95 62 0 40 43 0 0 0 0 0 0 0 0 5 78 92 5 5 25 94 100 82 28 5 4 3 0 0 0 0 0 0 0 0 0
3 12 3 0 0 0 0 0 0 6 43 82 0 69 0 0 0 0 0 0 0 0 2 2 3 93 100 72 21 100 68 100 83 27 5 5 4 5 5 3 0 0 0 0 0
78 60 25 0 0 0 0 0 0 0 78 6 63 38 0 0 0 0 0 0 0 1 4 5 5 5 4 12 78 99 100 100 54 100 5 5 23 8 39 5 0 0 0 0 0
5 1 31 55 9 0 0 0 0 3 66 86 85 40 0 0 0 0 0 0 2 4 4 5 4 5 3 49 5 41 60 92 100 66 75 32 5 9 5 5 5 5 4 3 40
7 5 5 5 13 14 3 0 0 8 96 0 0 0 0 0 0 0 0 4 6 5 3 16 5 5 11 36 80 10 2 5 90 60 100 99 24 100 5 5 5 5 0 55 42
5 2 3 0 2 2 19 9 13 41 0 0 0 0 3 0 1 0 1 32 5 2 5 5 4 36 50 11 66 92 24 5 9 11 59 92 100 100 91 5 5 3 3 35 0
5 9 4 2 0 1 29 21 35 100 83 0 0 0 0 2 1 32 3 5 3 4 5 6 75 5 5 5 13 11 5 22 30 5 5 5 28 100 88 9 0 0 18 11 46
5 5 1 5 23 41 22 27 12 100 29 0 0 0 2 43 18 41 4 3 5 16 92 57 72 0 0 2 5 11 12 5 5 5 41 44 5 7 73 5 2 0 0 0 0
5 5 5 5 53 32 6 31 71 100 100 2 76 0 5 80 11 5 5 5 84 83 50 81 2 0 0 4 2 41 13 5 5 10 5 3 7 0 2 1 0 0 0 0 0
5 5 5 16 38 17 30 53 100 100 83 3 4 3 3 82 71 58 58 27 14 88 38 37 11 2 5 2 4 6 41 15 5 5 84 5 5 0 2 0 0 0 0 0 0
0 2 20 70 82 18 48 72 100 100 61 6 2 4 81 100 100 100 97 99 85 61 36 5 5 3 2 5 5 5 51 94 98 98 46 5 3 0 0 0 0 2 0 0 0
0 0 81 98 93 77 80 100 99 97 100 5 22 84 93 100 100 100 100 100 94 59 45 11 77 1 0 3 13 5 22 98 94 98 100 5 3 0 3 0 0 4 0 0 0
0 11 98 100 96 93 100 100 67 68 64 100 96 100 94 100 100 100 100 100 98 35 21 67 26 5 5 7 32 29 69 8 49 12 47 7 2 15 5 4 10 5 5 2 5
14 90 98 77 86 73 100 100 100 100 100 100 100 99 100 100 100 99 100 80 34 15 28 60 86 11 10 5 5 34 16 79 91 100 99 61 5 62 38 94 30 5 5 5 14
45 72 91 92 96 100 100 100 100 100 93 100 100 100 100 100 99 100 79 88 97 96 27 74 100 57 5 5 67 50 89 70 98 95 99 96 99 100 82 53 5 5 24 98 62
97 48 38 91 99 100 82 100 98 77 90 100 100 100 100 100 100 68 100 100 94 90 89 85 100 95 98 6 5 5 31 69 100 100 85 38 73 100 94 5 24 98 100 100 100
34 99 52 97 100 100 72 56 38 43 78 100 100 100 100 100 100 99 100 100 100 98 83 42 81 99 92 26 13 6 5 33 80 89 86 99 100 100 56 81 100 100 100 99 52
43 66 85 100 100 100 100 88 95 98 99 95 100 100 100 100 100 100 96 100 100 100 84 40 98 85 42 98 78 67 8 69 86 99 78 100 97 70 91 100 100 100 84 81 100
52 77 100 100 100 96 98 100 100 100 100 100 100 100 100 100 100 100 100 100 100 100 98 92 98 88 5 5 32 85 90 100 99 71 100 98 92 100 100 100 100 91 51 100 100
23 98 100 100 100 97 98 90 98 100 100 100 100 100 100 100 100 100 100 97 81 97 100 98 100 91 69 11 33 76 73 99 100 100 100 86 100 100 100 100 100 16 96 99 100
73 95 100 100 100 100 100 100 96 100 100 100 100 100 100 100 100 100 84 40 66 60 97 93 99 98 96 94 29 78 27 100 100 89 96 100 100 100 100 99 6 18 92 100 98